Current Version              Previous Version:    01  02  03  04  05  06  07  08  09  10  11  12  13  14  15  16  17  18  19  20  21  22  23  24  25  26  27  28  29  30  
   31  32  33  34  35  36  37  38  39  40  41  42  43  44  45  46  47  48  49  50  51  52  53  54  55  56  57  58  59  60  

[Printable]
163
ASUS44 KFWD 200610
RWRTX
NORTH TEXAS HOURLY WEATHER ROUNDUP
NATIONAL WEATHER SERVICE FORT WORTH TX
100 AM CDT WED AUG 20 2014

NOTE: "FAIR" INDICATES FEW OR NO CLOUDS BELOW 12,000 FEET WITH NO
SIGNIFICANT WEATHER AND/OR OBSTRUCTIONS TO VISIBILITY.

TXZ118-119-200700-
DALLAS/FORT WORTH METROPLEX

CITY           SKY/WX    TMP DP  RH WIND       PRES   REMARKS
DFW AIRPORT    MOCLDY    81  69  67 S13       29.89S
6HR MIN TEMP:  81; 6HR MAX TEMP:  91;

DALLAS LOVE    CLOUDY    81  69  67 S12       29.90S
6HR MIN TEMP:  81; 6HR MAX TEMP:  93;

FTW MEACHAM    FAIR      81  69  67 S16       29.89R
6HR MIN TEMP:  81; 6HR MAX TEMP:  91;

DAL-EXECUTIVE  FAIR      81  69  67 S12       29.90S
6HR MIN TEMP:  81; 6HR MAX TEMP:  93;

FTW-ALLIANCE   MOCLDY    80  68  66 S13G22    29.88S
6HR MIN TEMP:  80; 6HR MAX TEMP:  90;

FTW-NAS-JRB    FAIR      83  67  58 S15       29.93S
6HR MIN TEMP:  83; 6HR MAX TEMP:  93;

FTW-SPINKS     FAIR      79  69  71 S10       29.91S
6HR MIN TEMP:  79; 6HR MAX TEMP:  91;

ARLINGTON      FAIR      80  69  69 SE12      29.90S
6HR MIN TEMP:  80; 6HR MAX TEMP:  91;

GRAND PRAIRIE  FAIR      79  68  68 SE8       29.91S
6HR MIN TEMP:  79; 6HR MAX TEMP:  91;

ADDISON        FAIR      81  68  65 S12       29.92S
6HR MIN TEMP:  81; 6HR MAX TEMP:  92;

MESQUITE       FAIR      77  69  76 SE5       29.91S
6HR MIN TEMP:  77; 6HR MAX TEMP:  92;

LANCASTER      FAIR      78  67  69 S7        29.92S
6HR MIN TEMP:  78; 6HR MAX TEMP:  92;

$$

TXZ091>094-102>105-117-120-121-131>134-200700-
NORTH CENTRAL TEXAS

CITY           SKY/WX    TMP DP  RH WIND       PRES   REMARKS
SHRMAN/DENISON FAIR      79  67  67 S12       29.91R
6HR MIN TEMP:  79; 6HR MAX TEMP:  91;

GAINESVILLE    MOCLDY    79  68  69 SE9       29.91F
6HR MIN TEMP:  79; 6HR MAX TEMP:  88;

BOWIE          FAIR      83  63  50 S8        29.89F
6HR MIN TEMP:  80; 6HR MAX TEMP:  88;

BRIDGEPORT     CLOUDY    82  64  53 S7        29.91S
6HR MIN TEMP:  82; 6HR MAX TEMP:  90;

DECATUR        FAIR      82  66  58 S13G18    29.90S
6HR MIN TEMP:  82; 6HR MAX TEMP:  90;

DENTON         FAIR      81  68  64 S9        29.89S
6HR MIN TEMP:  81; 6HR MAX TEMP:  90;

MCKINNEY       FAIR      79  69  71 S12       29.90F
6HR MIN TEMP:  79; 6HR MAX TEMP:  90;

GREENVILLE     FAIR      77  68  73 S6        29.91S
ROCKWALL       FAIR      77  69  77 S7        29.90F
6HR MIN TEMP:  77; 6HR MAX TEMP:  91;

TERRELL        FAIR      80  71  74 S12       29.91F
6HR MIN TEMP:  80; 6HR MAX TEMP:  94; 6HR PCP: TRACE;

WAXAHACHIE     FAIR      77  68  73 S9        29.92S
6HR MIN TEMP:  77; 6HR MAX TEMP:  90;

CLEBURNE       FAIR      79  72  78 SE10      29.92S
GRANBURY       FAIR      82  68  63 SE10      29.90S
6HR MIN TEMP:  82; 6HR MAX TEMP:  93;

$$

TXZ083>090-098>101-113>116-127>130-139>142-154-155-200700-
WESTERN NORTH TEXAS

CITY           SKY/WX    TMP DP  RH WIND       PRES   REMARKS
WICHITA FALLS  CLOUDY    83  64  52 S10       29.86F
6HR MIN TEMP:  81; 6HR MAX TEMP:  90;

WF-KICKAPOO    MOCLDY    82  62  50 S8        29.88F
6HR MIN TEMP:  82; 6HR MAX TEMP:  91;

VERNON         FAIR      83  64  54 SE9       29.87S
6HR MIN TEMP:  70; 6HR MAX TEMP: 102;

ABILENE        FAIR      79  66  64 S12       29.91S
6HR MIN TEMP:  79; 6HR MAX TEMP:  88;

BRECKENRIDGE   CLOUDY    83  63  50 SE5       29.88S
6HR MIN TEMP:  83; 6HR MAX TEMP:  91;

GRAHAM         MOCLDY    83  61  47 SE5       29.87S
6HR MIN TEMP:  83; 6HR MAX TEMP:  89;

MINERAL WELLS  FAIR      80  68  66 SE13      29.88S
6HR MIN TEMP:  80; 6HR MAX TEMP:  90;

STEPHENVILLE   FAIR      80  67  65 SE7       29.94S
6HR MIN TEMP:  80; 6HR MAX TEMP:  89;

COMANCHE       FAIR      78  66  66 SE6       29.92R
6HR MIN TEMP:  78; 6HR MAX TEMP:  88;

BROWNWOOD      FAIR      82  64  54 S13G18    29.91R
COLEMAN        FAIR      77  66  69 SE6       29.92R
6HR MIN TEMP:  75; 6HR MAX TEMP:  87;

BRADY          CLEAR     79  66  65 SE13      29.92S
$$

TXZ143>147-156>162-174-175-200700-
CENTRAL TEXAS

CITY           SKY/WX    TMP DP  RH WIND       PRES   REMARKS
WACO           FAIR      80  70  71 SE13      29.90F
6HR MIN TEMP:  80; 6HR MAX TEMP:  92;

WACO-MCGREGOR  FAIR      79  66  65 S14G20    29.92S
6HR MIN TEMP:  79; 6HR MAX TEMP:  93;

HILLSBORO      FAIR      78  69  73 SE9       29.91S
6HR MIN TEMP:  78; 6HR MAX TEMP:  92;

CORSICANA      FAIR      79  70  74 S14       29.92S
6HR MIN TEMP:  79; 6HR MAX TEMP:  94;

MEXIA          FAIR      76  72  86 S9        29.92S
6HR MIN TEMP:  76; 6HR MAX TEMP:  84;

HEARNE           N/A     79  73  81 SE9       29.93S
6HR MIN TEMP:  77; 6HR MAX TEMP:  83;

CAMERON        FAIR      80  72  76 S5        29.92S
6HR MIN TEMP:  79; 6HR MAX TEMP:  90;

TEMPLE         FAIR      81  66  61 SE13      29.91S
6HR MIN TEMP:  79; 6HR MAX TEMP:  91;

KILLEEN        MOCLDY    82  68  61 SE15      29.91F
KILLEEN-SKYLRK FAIR      81  66  61 SE13      29.92S
6HR MIN TEMP:  81; 6HR MAX TEMP:  91;

FORT HOOD      FAIR      84  69  60 SE10G20   29.91F
6HR MIN TEMP:  82; 6HR MAX TEMP:  92;

GATESVILLE     FAIR      79  70  73 SE5       29.93S
HAMILTON       FAIR      79  68  70 S10       29.92F
6HR MIN TEMP:  78; 6HR MAX TEMP:  89;

LAMPASAS       FAIR      82  68  64 S9        29.91F
6HR MIN TEMP:  81; 6HR MAX TEMP:  88;

$$

TXZ095>097-106>112-122>126-135>138-148>153-164>167-200700-
EAST TEXAS

CITY           SKY/WX    TMP DP  RH WIND       PRES   REMARKS
PARIS          FAIR      73  63  68 S3        29.92S
6HR MIN TEMP:  73; 6HR MAX TEMP:  88;

SULPHUR SPRNGS FAIR      77  67  73 SW8       29.93S
6HR MIN TEMP:  77; 6HR MAX TEMP:  93;

CLARKSVILLE    FAIR      74  67  78 CALM      29.91S
6HR MIN TEMP:  74; 6HR MAX TEMP:  89;

MOUNT PLEASANT FAIR      73  67  80 S5        29.93S
6HR MIN TEMP:  73; 6HR MAX TEMP:  90;

GILMER         FAIR      73  70  88 S3        29.94S
MINEOLA        FAIR      77  70  78 CALM      29.93R
TYLER          FAIR      78  69  73 S10       29.93R
6HR MIN TEMP:  75; 6HR MAX TEMP:  80;

LONGVIEW       FAIR      73  68  84 S6        29.92S
6HR MIN TEMP:  72; 6HR MAX TEMP:  80;

MARSHALL       FAIR      73  70  88 CALM      29.96R
6HR MIN TEMP:  73; 6HR MAX TEMP:  81;

ATHENS         FAIR      77  70  78 S7        29.92S
PALESTINE      FAIR      76  73  91 SE5       29.94S
JACKSONVILLE   FAIR      74  71  88 S10G17    29.95S
HENDERSON      FAIR      72  70  95 CALM      29.94S
6HR MIN TEMP:  71; 6HR MAX TEMP:  75;

NACOGDOCHES    FAIR      72  70  94 E5        29.95S
6HR MIN TEMP:  72; 6HR MAX TEMP:  75; 6HR PCP:  0.09;

LUFKIN         FAIR      76  71  85 CALM      29.94S
6HR MIN TEMP:  75; 6HR MAX TEMP:  77; 6HR PCP:  0.02;

$$

SUPPLEMENTAL OBSERVATIONS (CENTRAL)

CITY           SKY/WX    TMP DP  RH WIND       PRES   REMARKS
CADDO GRASSLND   N/A     77  66  69 S10         N/A
PAT MAYSE LAKE   N/A     77  66  69 SE6         N/A
GREENVILLE       N/A     75  68  78 SW6         N/A
CEDAR HILL       N/A     79  68  69 S9          N/A
PALESTINE        N/A     75  70  83 S7G15       N/A
MCGREGOR         N/A     79  68  69 S14         N/A